Location: *
(46.0770°N, 1.6444°E)
Time: 15:32:32
(UTC+00:00)

Cosmos 614 Rocket - Pass Details

Date: 16 September 2019
Orbit: 733 x 764 km, 74.1° (Epoch: 21 October)

Event Time Altitude Azimuth Distance (km) Brightness Sun altitude
Rises 19:34:11 0° 342° (NNW) 3,239 7.8 -16.1°
Reaches altitude 10° 19:36:39 10° 348° (NNW) 2,308 6.9 -16.5°
Maximum altitude 19:41:44 49° 63° (ENE) 973 4.3 -17.3°
Enters shadow 19:43:50 31° 119° (ESE) 1,299 4.6 -17.6°
